Date String (YYYY-MM-DD hh:mm:ss) UTC,Instrument flags,Ambient pressure (hPa),Sample flow (lpm),Bypass flow (lpm),Sample temperature (°C),Ambient temperature (°C),ASC tube jacket temperature (°C),LED temperature (°C),Box temperature (°C),Sample RH (%),Span deviation,Mass concentration (μg/m³),Mass concentration (μg/m³),Mass concentration (μg/m³)
DateTimeUTC,F1_M11,P_M11,Q1_M11,Q2_M11,T1_M11,T2_M11,T3_M11,T4_M11,T5_M11,U1_M11,ZSPAN_M11,X0_M11,X2_M11,X1_M11
2023-05-07 11:00:00,,0827.7,4.99,0.00,28.1,26.5,00.0,36.5,29.6,10.0,0000.0,0009.14,0002.89,0001.59
2023-05-07 11:01:00,,0827.7,5.00,0.00,28.1,26.5,00.0,36.5,29.5,10.1,0000.0,0009.03,0002.79,0001.58
2023-05-07 11:02:00,,0827.7,5.00,0.00,28.1,26.4,00.0,36.5,29.5,10.3,0000.0,0008.99,0002.76,0001.58
2023-05-07 11:03:00,,0827.7,5.01,0.00,28.1,26.4,00.0,36.5,29.5,10.2,0000.0,0008.96,0002.69,0001.56
2023-05-07 11:04:00,,0827.7,4.99,0.00,28.1,26.3,00.0,36.5,29.5,10.1,0000.0,0008.40,0002.65,0001.54
2023-05-07 11:05:00,,0827.7,5.00,0.00,28.1,26.3,00.0,36.5,29.5,10.1,0000.0,0007.36,0002.70,0001.52
2023-05-07 11:06:00,,0827.7,5.00,0.00,28.1,26.3,00.0,36.5,29.4,10.1,0000.0,0007.36,0002.75,0001.52
2023-05-07 11:07:00,,0827.7,5.00,0.00,28.1,26.3,00.0,36.5,29.5,10.2,0000.0,0006.90,0002.67,0001.51
2023-05-07 11:08:00,,0827.7,5.00,0.00,28.1,26.3,00.0,36.5,29.4,10.2,0000.0,0006.91,0002.68,0001.51
2023-05-07 11:09:00,,0827.7,5.01,0.00,28.1,26.3,00.0,36.5,29.4,10.1,0000.0,0006.08,0002.70,0001.52
2023-05-07 11:10:00,,0827.7,4.99,0.00,28.1,26.4,00.0,36.5,29.5,10.0,0000.0,0006.21,0002.72,0001.52
2023-05-07 11:11:00,,0827.7,4.99,0.00,28.1,26.4,00.0,36.5,29.6,10.0,0000.0,0007.72,0002.66,0001.50
2023-05-07 11:12:00,,0827.7,4.99,0.00,28.1,26.4,00.0,36.5,29.6,10.0,0000.0,0007.74,0002.69,0001.49
2023-05-07 11:13:00,,0827.7,5.00,0.00,28.1,26.4,00.0,36.5,29.6,10.0,0000.0,0007.77,0002.73,0001.49
2023-05-07 11:14:00,,0827.7,5.01,0.00,28.1,26.5,00.0,36.5,29.6,10.0,0000.0,0008.38,0002.78,0001.49
2023-05-07 11:15:00,,0827.7,5.01,0.00,28.1,26.5,00.0,36.5,29.6,10.1,0000.0,0008.95,0002.68,0001.50
2023-05-07 11:16:00,,0827.7,4.99,0.00,28.1,26.5,00.0,36.5,29.6,10.0,0000.0,0008.90,0002.66,0001.51
2023-05-07 11:17:00,,0827.7,4.99,0.00,28.1,26.5,00.0,36.5,29.6,10.0,0000.0,0008.79,0002.63,0001.51
2023-05-07 11:18:00,,0827.8,5.01,0.00,28.1,26.5,00.0,36.5,29.7,10.0,0000.0,0008.50,0002.60,0001.51
2023-05-07 11:19:00,,0827.7,5.01,0.00,28.1,26.5,00.0,36.5,29.6,10.0,0000.0,0008.51,0002.58,0001.50
2023-05-07 11:20:00,,0827.7,5.01,0.00,28.1,26.5,00.0,36.5,29.6,10.0,0000.0,0008.43,0002.55,0001.49
2023-05-07 11:21:00,,0827.7,4.99,0.00,28.1,26.5,00.0,36.5,29.5,10.1,0000.0,0008.45,0002.59,0001.49
2023-05-07 11:22:00,,0827.7,5.00,0.00,28.1,26.5,00.0,36.5,29.5,10.1,0000.0,0007.66,0002.65,0001.48
2023-05-07 11:23:00,,0827.7,5.00,0.00,28.1,26.5,00.0,36.5,29.5,10.1,0000.0,0007.51,0002.69,0001.48
2023-05-07 11:24:00,,0827.7,5.01,0.00,28.1,26.4,00.0,36.5,29.5,10.0,0000.0,0007.57,0002.70,0001.47
2023-05-07 11:25:00,,0827.6,5.00,0.00,28.1,26.4,00.0,36.5,29.5,10.0,0000.0,0007.11,0002.67,0001.46
2023-05-07 11:26:00,,0827.6,5.00,0.00,28.1,26.4,00.0,36.4,29.5,10.0,0000.0,0005.82,0002.72,0001.44
2023-05-07 11:27:00,,0827.7,5.00,0.00,28.1,26.4,00.0,36.4,29.5,10.0,0000.0,0005.73,0002.75,0001.43
2023-05-07 11:28:00,,0827.7,5.00,0.00,28.1,26.4,00.0,36.4,29.5,10.0,0000.0,0005.79,0002.75,0001.42
2023-05-07 11:29:00,,0827.7,5.00,0.00,28.1,26.4,00.0,36.4,29.5,10.0,0000.0,0006.59,0002.87,0001.44
2023-05-07 11:30:00,,0827.7,4.99,0.00,28.1,26.4,00.0,36.4,29.5,10.0,0000.0,0007.37,0002.90,0001.45
2023-05-07 11:31:00,,0827.7,5.00,0.00,28.1,26.4,00.0,36.4,29.5,10.0,0000.0,0007.48,0002.98,0001.45
2023-05-07 11:32:00,,0827.7,5.01,0.00,28.1,26.3,00.0,36.4,29.4,10.1,0000.0,0007.72,0003.05,0001.46
2023-05-07 11:33:00,,0827.7,5.00,0.00,28.1,26.3,00.0,36.4,29.4,10.2,0000.0,0007.71,0003.04,0001.46
2023-05-07 11:34:00,,0827.8,5.00,0.00,28.1,26.3,00.0,36.4,29.4,10.1,0000.0,0007.72,0003.08,0001.47
2023-05-07 11:35:00,,0827.7,5.00,0.00,28.1,26.3,00.0,36.4,29.4,10.2,0000.0,0007.67,0003.06,0001.47
2023-05-07 11:36:00,,0827.7,5.00,0.00,28.0,26.3,00.0,36.4,29.4,10.3,0000.0,0007.53,0003.01,0001.46
2023-05-07 11:37:00,,0827.7,5.00,0.00,28.0,26.2,00.0,36.4,29.3,10.1,0000.0,0007.52,0002.98,0001.47
2023-05-07 11:38:00,,0827.8,5.01,0.00,28.0,26.2,00.0,36.4,29.3,10.2,0000.0,0007.64,0003.03,0001.47
2023-05-07 11:39:00,,0827.8,4.99,0.00,28.0,26.1,00.0,36.4,29.3,10.2,0000.0,0007.59,0002.98,0001.47
2023-05-07 11:40:00,,0827.8,4.99,0.00,28.0,26.1,00.0,36.4,29.3,10.0,0000.0,0007.64,0002.93,0001.46
2023-05-07 11:41:00,,0827.8,5.01,0.00,28.0,26.1,00.0,36.4,29.3,10.3,0000.0,0007.37,0002.91,0001.46
2023-05-07 11:42:00,,0827.7,5.01,0.00,28.0,26.1,00.0,36.4,29.3,10.2,0000.0,0007.28,0002.82,0001.45
2023-05-07 11:43:00,,0827.7,5.00,0.00,27.9,26.1,00.0,36.4,29.3,10.3,0000.0,0006.91,0002.71,0001.45
2023-05-07 11:44:00,,0827.8,5.00,0.00,27.9,26.1,00.0,36.4,29.3,10.3,0000.0,0006.71,0002.67,0001.46
2023-05-07 11:45:00,,0827.7,5.01,0.00,27.9,26.1,00.0,36.3,29.3,10.2,0000.0,0006.50,0002.59,0001.45
2023-05-07 11:46:00,,0827.8,5.00,0.00,27.9,26.1,00.0,36.3,29.3,10.3,0000.0,0006.48,0002.59,0001.45
2023-05-07 11:47:00,,0827.8,4.99,0.00,27.9,26.1,00.0,36.3,29.3,10.2,0000.0,0006.78,0002.66,0001.47
2023-05-07 11:48:00,,0827.8,5.00,0.00,27.9,26.1,00.0,36.3,29.3,10.1,0000.0,0006.83,0002.67,0001.48
2023-05-07 11:49:00,,0827.8,4.99,0.00,27.9,26.1,00.0,36.3,29.3,10.3,0000.0,0006.57,0002.63,0001.48
2023-05-07 11:50:00,,0827.8,5.01,0.00,27.9,26.1,00.0,36.3,29.3,10.3,0000.0,0006.42,0002.60,0001.50
2023-05-07 11:51:00,,0827.9,5.00,0.00,27.9,26.1,00.0,36.3,29.2,10.3,0000.0,0005.85,0002.54,0001.49
2023-05-07 11:52:00,,0827.8,5.00,0.00,27.9,26.1,00.0,36.3,29.3,10.3,0000.0,0005.83,0002.50,0001.48
2023-05-07 11:53:00,,0827.9,5.01,0.00,27.9,26.1,00.0,36.3,29.2,10.2,0000.0,0006.54,0002.49,0001.49
2023-05-07 11:54:00,,0827.8,5.01,0.00,27.9,26.1,00.0,36.3,29.2,10.2,0000.0,0006.50,0002.50,0001.48
2023-05-07 11:55:00,,0827.9,5.00,0.00,27.9,26.1,00.0,36.3,29.2,10.2,0000.0,0006.49,0002.49,0001.47
2023-05-07 11:56:00,,0827.8,5.00,0.00,27.9,26.1,00.0,36.3,29.3,10.3,0000.0,0006.57,0002.48,0001.45
2023-05-07 11:57:00,,0827.8,5.00,0.00,27.8,26.0,00.0,36.2,29.2,10.4,0000.0,0006.77,0002.45,0001.44
2023-05-07 11:58:00,,0827.8,4.99,0.00,27.8,26.0,00.0,36.2,29.2,10.5,0000.0,0006.73,0002.43,0001.43
2023-05-07 11:59:00,,0827.8,5.01,0.00,27.8,26.0,00.0,36.2,29.2,10.6,0000.0,0006.99,0002.48,0001.42
